Surface/Precipitation History
12/08/2016 21:58  to  12/9/2016 21:58
Change End Date:
Date/Time
(MST)
Sf
Temp Chem Water Layer Surface Precipitation
Sfc Pvt Sub Frz Factor Pct Dpth DpthThk IcePct Cond Salin FI Type Intens Accum Rate
12/09/2016 21:54 Ice Warning 24.6F - 26F 32F 95 1% - - 96% 2 mhos 427 - Yes - - -
12/09/2016 21:46 Ice Warning 24.4F - 26F 32F 95 1% - - 96% 2 mhos 435 - Yes - - -
12/09/2016 21:39 Ice Warning 24.4F - 26F 32F 95 1% - - 96% 2 mhos 434 - Yes - - -
12/09/2016 21:36 Ice Warning 24.4F - 26F 32F 95 1% - - 96% 2 mhos 434 - Yes - - -
12/09/2016 21:26 Ice Warning 24.4F - 26F 32F 95 1% - - 96% 2 mhos 439 - Yes - - -
12/09/2016 21:24 Ice Warning 24.3F - 26F 32F 95 1% - - 96% 2 mhos 444 - Yes - - -
12/09/2016 21:16 Ice Warning 24.3F - 26F 32F 95 1% - - 96% 2 mhos 444 - Yes - - -
12/09/2016 21:09 Ice Warning 24.1F - 26F 32F 95 1% - - 96% 2 mhos 449 - None None - -
12/09/2016 21:06 Ice Warning 24.1F - 26F 32F 95 1% - - 96% 2 mhos 449 - Yes - - -
12/09/2016 20:56 Ice Warning 23.9F - 26F 32F 95 1% - - 97% 2 mhos 450 - None None - -
12/09/2016 20:54 Ice Warning 23.9F - 26F 32F 95 1% - - 97% 2 mhos 450 - None None - -
12/09/2016 20:46 Ice Warning 23.7F - 26F 32F 95 2% - - 97% 2 mhos 453 - None None - -
12/09/2016 20:39 Ice Warning 23.7F - 26F 32F 95 1% - - 97% 2 mhos 448 - None None - -
12/09/2016 20:36 Ice Warning 23.7F - 26F 32F 95 1% - - 97% 2 mhos 444 - None None - -
12/09/2016 20:26 Ice Warning 23.7F - 26F 32F 95 1% - - 97% 2 mhos 444 - None None - -
Date/Time
(MST)
Sf
Temp Chem Water Layer Surface Precipitation
Sfc Pvt Sub Frz Factor Pct Dpth DpthThk IcePct Cond Salin FI Type Intens Accum Rate
12/09/2016 20:24 Ice Warning 23.7F - 26F 32F 95 1% - - 97% 2 mhos 444 - None None - -
12/09/2016 20:16 Ice Warning 23.7F - 26F 32F 95 1% - - 97% 2 mhos 444 - None None - -
12/09/2016 20:08 Ice Warning 23.7F - 26F 32F 95 1% - - 97% 2 mhos 449 - None None - -
12/09/2016 20:06 Ice Warning 23.7F - 26F 32F 95 1% - - 97% 2 mhos 449 - None None - -
12/09/2016 19:56 Ice Warning 23.9F - 26F 32F 95 1% - - 97% 2 mhos 448 - None None - -
12/09/2016 19:54 Ice Warning 24.1F - 26F 32F 95 1% - - 97% 2 mhos 442 - None None - -
12/09/2016 19:46 Ice Warning 24.3F - 26F 32F 95 2% - - 96% 2 mhos 451 - None None - -
12/09/2016 19:39 Ice Warning 24.6F - 26F 32F 95 1% - - 96% 2 mhos 445 - Yes - - -
12/09/2016 19:36 Ice Warning 24.6F - 26F 32F 95 1% - - 96% 2 mhos 445 - Yes - - -
12/09/2016 19:26 Ice Warning 24.6F - 26F 32F 95 1% - - 96% 2 mhos 445 - Yes - - -
12/09/2016 19:24 Ice Warning 24.6F - 26F 32F 95 1% - - 96% 2 mhos 440 - None None - -
12/09/2016 19:16 Ice Warning 24.6F - 26F 32F 95 1% - - 96% 2 mhos 440 - None None - -
12/09/2016 19:09 Ice Warning 24.6F - 26F 32F 95 1% - - 96% 2 mhos 445 - None None - -
12/09/2016 19:06 Ice Warning 24.6F - 26F 32F 95 1% - - 96% 2 mhos 445 - None None - -
12/09/2016 18:56 Ice Warning 24.6F - 26F 32F 95 1% - - 96% 2 mhos 444 - Yes - - -
Date/Time
(MST)
Sf
Temp Chem Water Layer Surface Precipitation
Sfc Pvt Sub Frz Factor Pct Dpth DpthThk IcePct Cond Salin FI Type Intens Accum Rate
12/09/2016 18:54 Ice Warning 24.6F - 26F 32F 95 1% - - 96% 2 mhos 444 - None None - -
12/09/2016 18:46 Ice Warning 24.6F - 26F 32F 95 1% - - 96% 2 mhos 444 - None None - -
12/09/2016 18:39 Ice Warning 24.6F - 26F 32F 95 1% - - 96% 2 mhos 444 - None None - -
12/09/2016 18:36 Ice Warning 24.6F - 26F 32F 95 1% - - 96% 2 mhos 444 - None None - -
12/09/2016 18:26 Ice Warning 24.6F - 26F 32F 95 1% - - 96% 2 mhos 439 - None None - -
12/09/2016 18:24 Ice Warning 24.6F - 26F 32F 95 1% - - 96% 2 mhos 439 - None None - -
12/09/2016 18:16 Ice Warning 24.6F - 26F 32F 95 1% - - 96% 2 mhos 444 - None None - -
12/09/2016 18:09 Ice Warning 24.8F - 26F 32F 95 1% - - 96% 2 mhos 443 - None None - -
12/09/2016 18:06 Ice Warning 24.8F - 26F 32F 95 1% - - 96% 2 mhos 443 - None None - -
12/09/2016 17:55 Ice Warning 24.8F - 26F 32F 95 1% - - 96% 2 mhos 433 - None None - -
12/09/2016 17:54 Ice Warning 24.8F - 26F 32F 95 1% - - 96% 2 mhos 434 - None None - -
12/09/2016 17:45 Ice Warning 24.6F - 26F 32F 95 1% - - 96% 2 mhos 439 - None None - -
12/09/2016 17:39 Ice Warning 24.6F - 26F 32F 95 1% - - 96% 2 mhos 434 - None None - -
12/09/2016 17:35 Ice Warning 24.8F - 26F 32F 95 1% - - 96% 2 mhos 433 - None None - -
12/09/2016 17:25 Ice Warning 25.0F - 26F 32F 95 1% - - 96% 2 mhos 428 - None None - -
Date/Time
(MST)
Sf
Temp Chem Water Layer Surface Precipitation
Sfc Pvt Sub Frz Factor Pct Dpth DpthThk IcePct Cond Salin FI Type Intens Accum Rate
12/09/2016 17:24 Ice Warning 25.0F - 26F 32F 95 1% - - 96% 2 mhos 433 - None None - -
12/09/2016 17:15 Ice Warning 25.0F - 26F 32F 95 1% - - 96% 3 mhos 448 - None None - -
12/09/2016 17:08 Ice Warning 25.2F - 26F 32F 95 1% - - 96% 3 mhos 447 - None None - -
12/09/2016 17:05 Ice Warning 25.2F - 26F 32F 95 1% - - 96% 3 mhos 447 - None None - -
12/09/2016 16:55 Ice Warning 25.5F - 26F 32F 95 1% - - 96% 3 mhos 447 - None None - -
12/09/2016 16:53 Ice Warning 25.5F - 26F 32F 95 2% - - 96% 3 mhos 452 - None None - -
12/09/2016 16:45 Ice Warning 25.7F - 25F 32F 95 2% - - 96% 3 mhos 452 - None None - -
12/09/2016 16:38 Ice Warning 25.9F - 25F 32F 95 2% - - 96% 3 mhos 464 - None None - -
12/09/2016 16:35 Ice Warning 26.1F - 25F 32F 95 2% - - 95% 3 mhos 464 - None None - -
12/09/2016 16:25 Ice Warning 26.2F - 25F 32F 95 2% - - 95% 3 mhos 471 - None None - -
12/09/2016 16:23 Ice Warning 26.4F - 25F 32F 95 2% - - 95% 3 mhos 472 - Yes - - -
12/09/2016 16:15 Ice Warning 26.6F - 25F 32F 95 2% - - 95% 3 mhos 486 - Yes - - -
12/09/2016 16:08 Ice Warning 26.8F - 25F 32F 95 2% - - 95% 3 mhos 489 - None None - -
12/09/2016 16:05 Ice Warning 27.0F - 25F 32F 95 2% - - 95% 3 mhos 491 - None None - -
12/09/2016 15:55 Ice Warning 27.3F - 25F 32F 95 2% - - 94% 4 mhos 536 - None None - -
Date/Time
(MST)
Sf
Temp Chem Water Layer Surface Precipitation
Sfc Pvt Sub Frz Factor Pct Dpth DpthThk IcePct Cond Salin FI Type Intens Accum Rate
12/09/2016 15:54 Ice Warning 27.3F - 25F 32F 95 2% - - 94% 4 mhos 542 - None None - -
12/09/2016 15:45 Ice Warning 27.7F - 25F 31F 95 2% - - 93% 4 mhos 559 - Yes - - -
12/09/2016 15:39 Ice Warning 28.0F - 25F 31F 95 2% - - 93% 4 mhos 559 - Yes - - -
12/09/2016 15:35 Ice Warning 28.0F - 25F 31F 95 2% - - 93% 4 mhos 556 - Yes - - -
12/09/2016 15:25 Ice Warning 28.2F - 25F 32F 95 2% - - 93% 4 mhos 536 - Yes - - -
12/09/2016 15:23 Ice Warning 28.4F - 25F 32F 95 2% - - 92% 4 mhos 531 - Yes - - -
12/09/2016 15:15 Ice Warning 28.6F - 25F 32F 95 2% - - 92% 4 mhos 527 - Yes - - -
12/09/2016 15:08 Ice Warning 28.6F - 25F 32F 95 2% - - 92% 4 mhos 525 - Yes - - -
12/09/2016 15:05 Ice Warning 28.6F - 25F 32F 95 2% - - 92% 4 mhos 524 - Yes - - -
12/09/2016 14:55 Ice Warning 28.2F - 25F 32F 95 2% - - 93% 4 mhos 538 - Yes - - -
12/09/2016 14:54 Ice Warning 28.2F - 25F 32F 95 2% - - 92% 4 mhos 542 - Yes - - -
12/09/2016 14:45 Ice Warning 28.4F - 25F 32F 95 2% - - 92% 4 mhos 541 - None None - -
12/09/2016 14:38 Ice Warning 28.4F - 25F 32F 95 2% - - 92% 4 mhos 546 - Yes - - -
12/09/2016 14:35 Ice Warning 28.4F - 25F 32F 95 2% - - 92% 4 mhos 550 - None None - -
12/09/2016 14:25 Ice Warning 28.4F - 25F 31F 95 2% - - 92% 4 mhos 566 - None None - -
Date/Time
(MST)
Sf
Temp Chem Water Layer Surface Precipitation
Sfc Pvt Sub Frz Factor Pct Dpth DpthThk IcePct Cond Salin FI Type Intens Accum Rate
12/09/2016 14:23 Ice Warning 28.4F - 25F 31F 95 2% - - 92% 4 mhos 569 - Yes - - -
12/09/2016 14:15 Ice Warning 28.6F - 24F 31F 95 2% - - 92% 4 mhos 570 - None None - -
12/09/2016 14:08 Ice Warning 28.6F - 24F 31F 95 2% - - 91% 4 mhos 578 - None None - -
12/09/2016 14:05 Ice Warning 28.8F - 24F 31F 95 2% - - 91% 4 mhos 575 - None None - -
12/09/2016 13:55 Ice Warning 29.1F - 24F 31F 95 2% - - 90% 5 mhos 577 - None None - -
12/09/2016 13:53 Ice Warning 29.1F - 24F 31F 95 2% - - 90% 5 mhos 571 - Yes - - -
12/09/2016 13:45 Ice Warning 29.1F - 24F 31F 95 2% - - 90% 5 mhos 580 - Yes - - -
12/09/2016 13:39 Ice Warning 29.3F - 24F 31F 95 2% - - 89% 5 mhos 579 - Yes - - -
12/09/2016 13:35 Ice Warning 29.3F - 24F 31F 95 2% - - 89% 5 mhos 585 - Yes - - -
12/09/2016 13:25 Ice Warning 29.7F - 24F 32F 95 2% - - 89% 5 mhos 541 - None None - -
12/09/2016 13:24 Ice Warning 29.7F - 24F 32F 95 2% - - 89% 5 mhos 543 - None None - -
12/09/2016 13:14 Ice Warning 30.2F - 24F 32F 95 2% - - 87% 5 mhos 533 - None None - -
12/09/2016 13:08 Ice Warning 30.2F - 24F 32F 95 2% - - 86% 5 mhos 531 - None None - -
12/09/2016 13:04 Ice Warning 30.0F - 24F 32F 95 2% - - 87% 5 mhos 547 - None None - -
12/09/2016 12:54 Ice Warning 30.2F - 24F 32F 95 2% - - 86% 5 mhos 544 - None None - -
Date/Time
(MST)
Sf
Temp Chem Water Layer Surface Precipitation
Sfc Pvt Sub Frz Factor Pct Dpth DpthThk IcePct Cond Salin FI Type Intens Accum Rate
12/09/2016 12:53 Chemically Wet 30.4F - 24F 32F 95 2% - - 84% 5 mhos 538 - None None - -
12/09/2016 12:44 Chemically Wet 31.3F - 24F 32F 95 2% - - 75% 4 mhos 470 - None None - -
12/09/2016 12:39 Chemically Wet 30.9F - 24F 32F 95 2% - - 81% 4 mhos 486 - None None - -
12/09/2016 12:34 Chemically Wet 31.5F - 24F 32F 95 2% - - 69% 5 mhos 471 - None None - -
12/09/2016 12:24 Chemically Wet 31.3F - 24F 32F 95 2% - - 73% 5 mhos 506 - None None - -
12/09/2016 12:24 Chemically Wet 31.3F - 24F 32F 95 2% - - 73% 5 mhos 503 - None None - -
12/09/2016 12:14 Ice Warning 30.4F - 24F 32F 95 1% - - 89% 3 mhos 380 - None None - -
12/09/2016 12:09 Ice Warning 29.1F - 24F 32F 95 1% - - 95% 2 mhos 292 - None None - -
12/09/2016 12:04 Ice Warning 29.1F - 24F 32F 95 1% - - 96% 2 mhos 252 - None None - -
12/09/2016 11:54 Ice Warning 27.5F - 24F 32F 95 1% - - 97% 2 mhos 253 - None None - -
12/09/2016 11:54 Ice Warning 27.5F - 24F 32F 95 1% - - 97% 2 mhos 251 - None None - -
12/09/2016 11:44 Ice Warning 26.8F - 24F 32F 95 1% - - 97% 2 mhos 247 - None None - -
12/09/2016 11:39 Ice Warning 25.7F - 24F 32F 95 1% - - 98% 2 mhos 261 - None None - -
12/09/2016 11:34 Ice Warning 25.3F - 24F 32F 95 1% - - 98% 2 mhos 270 - None None - -
12/09/2016 11:24 Ice Warning 25.9F - 24F 32F 95 1% - - 98% 1 mhos 242 - None None - -
Date/Time
(MST)
Sf
Temp Chem Water Layer Surface Precipitation
Sfc Pvt Sub Frz Factor Pct Dpth DpthThk IcePct Cond Salin FI Type Intens Accum Rate
12/09/2016 11:24 Ice Warning 25.7F - 24F 32F 95 1% - - 98% 1 mhos 248 - None None - -
12/09/2016 11:14 Ice Warning 24.1F - 24F 32F 95 1% - - 98% 1 mhos 275 - Yes - - -
12/09/2016 11:09 Ice Warning 23.5F - 24F 32F 95 1% - - 98% 1 mhos 288 - Yes - - -
12/09/2016 11:04 Ice Warning 23.4F - 24F 32F 95 1% - - 98% 1 mhos 292 - None None - -
12/09/2016 10:54 Ice Warning 23.7F - 24F 32F 95 1% - - 98% 1 mhos 280 - None None - -
12/09/2016 10:53 Ice Warning 23.7F - 24F 32F 95 1% - - 98% 1 mhos 278 - None None - -
12/09/2016 10:44 Ice Warning 23.2F - 24F 32F 95 1% - - 98% 1 mhos 299 - None None - -
12/09/2016 10:39 Ice Warning 22.8F - 24F 32F 95 1% - - 98% 1 mhos 306 - None None - -
12/09/2016 10:34 Ice Warning 22.6F - 24F 32F 95 1% - - 98% 1 mhos 310 - Yes - - -
12/09/2016 10:24 Ice Warning 22.3F - 24F 32F 95 1% - - 98% 1 mhos 322 - None None - -
12/09/2016 10:24 Ice Warning 22.3F - 24F 32F 95 1% - - 98% 1 mhos 322 - None None - -
12/09/2016 10:14 Ice Warning 21.9F - 24F 32F 95 1% - - 98% 1 mhos 329 - Yes - - -
12/09/2016 10:09 Ice Warning 21.6F - 23F 32F 95 1% - - 98% 1 mhos 337 - None None - -
12/09/2016 10:04 Ice Warning 21.6F - 23F 32F 95 1% - - 98% 1 mhos 337 - None None - -
12/09/2016 09:54 Ice Warning 21.2F - 23F 32F 95 1% - - 98% 1 mhos 348 - None None - -
Date/Time
(MST)
Sf
Temp Chem Water Layer Surface Precipitation
Sfc Pvt Sub Frz Factor Pct Dpth DpthThk IcePct Cond Salin FI Type Intens Accum Rate
12/09/2016 09:53 Ice Warning 21.2F - 23F 32F 95 1% - - 98% 1 mhos 348 - None None - -
12/09/2016 09:44 Ice Warning 20.7F - 23F 32F 95 1% - - 98% 1 mhos 359 - None None - -
12/09/2016 09:39 Ice Warning 20.5F - 23F 32F 95 1% - - 98% 1 mhos 364 - None None - -
12/09/2016 09:34 Ice Warning 20.3F - 23F 32F 95 1% - - 98% 1 mhos 369 - None None - -
12/09/2016 09:24 Ice Warning 20.1F - 23F 32F 95 1% - - 98% 1 mhos 376 - None None - -
12/09/2016 09:23 Ice Warning 20.1F - 23F 32F 95 1% - - 98% 1 mhos 376 - None None - -
12/09/2016 09:14 Ice Warning 19.8F - 23F 32F 95 1% - - 98% 1 mhos 383 - None None - -
12/09/2016 09:08 Ice Warning 19.4F - 23F 32F 95 1% - - 98% 1 mhos 393 - None None - -
12/09/2016 09:04 Ice Warning 19.2F - 23F 32F 95 1% - - 98% 1 mhos 398 - Yes - - -
12/09/2016 08:54 Ice Warning 19.2F - 23F 32F 95 1% - - 98% 1 mhos 401 - None None - -
12/09/2016 08:53 Ice Warning 19.2F - 23F 32F 95 1% - - 98% 1 mhos 401 - None None - -
12/09/2016 08:44 Ice Warning 18.9F - 23F 32F 95 1% - - 98% 1 mhos 409 - None None - -
12/09/2016 08:38 Ice Warning 18.7F - 23F 32F 95 1% - - 98% 1 mhos 414 - Yes - - -
12/09/2016 08:34 Ice Warning 18.5F - 23F 32F 95 1% - - 98% 1 mhos 417 - Yes - - -
12/09/2016 08:23 Ice Warning 18.3F - 23F 32F 95 1% - - 98% 1 mhos 422 - None None - -
Date/Time
(MST)
Sf
Temp Chem Water Layer Surface Precipitation
Sfc Pvt Sub Frz Factor Pct Dpth DpthThk IcePct Cond Salin FI Type Intens Accum Rate
12/09/2016 08:23 Ice Warning 18.3F - 23F 32F 95 1% - - 98% 1 mhos 422 - None None - -
12/09/2016 08:13 Ice Warning 18.1F - 23F 32F 95 1% - - 98% 1 mhos 430 - None None - -
12/09/2016 08:08 Ice Warning 17.8F - 23F 32F 95 1% - - 98% 1 mhos 441 - None None - -
12/09/2016 08:03 Ice Warning 17.4F - 23F 32F 95 1% - - 98% 1 mhos 449 - Yes - - -
12/09/2016 07:53 Ice Warning 17.2F - 23F 32F 95 2% - - 98% 1 mhos 461 - Yes - - -
12/09/2016 07:53 Ice Warning 17.2F - 23F 32F 95 2% - - 98% 1 mhos 461 - Yes - - -
12/09/2016 07:43 Ice Warning 17.2F - 23F 32F 95 2% - - 98% 1 mhos 467 - Yes - - -
12/09/2016 07:38 Ice Warning 17.1F - 23F 32F 95 2% - - 98% 1 mhos 472 - Yes - - -
12/09/2016 07:33 Ice Warning 16.9F - 23F 32F 95 2% - - 98% 1 mhos 483 - Yes - - -
12/09/2016 07:24 Ice Warning 17.1F - 23F 32F 95 2% - - 98% 1 mhos 483 - Yes - - -
12/09/2016 07:23 Ice Warning 16.9F - 23F 32F 95 2% - - 98% 1 mhos 489 - Yes - - -
12/09/2016 07:13 Ice Warning 16.9F - 23F 32F 95 2% - - 98% 1 mhos 492 - Yes - - -
12/09/2016 07:09 Ice Warning 16.7F - 23F 32F 95 2% - - 97% 1 mhos 506 - Yes - - -
12/09/2016 07:03 Ice Warning 16.7F - 23F 32F 95 2% - - 97% 1 mhos 506 - Yes - - -
12/09/2016 06:54 Ice Warning 16.5F - 23F 32F 95 2% - - 97% 1 mhos 516 - Yes - - -
Date/Time
(MST)
Sf
Temp Chem Water Layer Surface Precipitation
Sfc Pvt Sub Frz Factor Pct Dpth DpthThk IcePct Cond Salin FI Type Intens Accum Rate
12/09/2016 06:53 Ice Warning 16.3F - 23F 32F 95 2% - - 97% 1 mhos 525 - Yes - - -
12/09/2016 06:43 Ice Warning 16.3F - 23F 32F 95 2% - - 97% 1 mhos 543 - Yes - - -
12/09/2016 06:39 Ice Warning 16.2F - 23F 32F 95 2% - - 97% 1 mhos 546 - Yes - - -
12/09/2016 06:33 Ice Warning 16.2F - 23F 32F 95 2% - - 97% 1 mhos 545 - None None - -
12/09/2016 06:24 Ice Warning 16.2F - 23F 32F 95 2% - - 97% 1 mhos 545 - Yes - - -
12/09/2016 06:23 Ice Warning 16.2F - 23F 32F 95 2% - - 97% 1 mhos 545 - Yes - - -
12/09/2016 06:13 Ice Warning 16.2F - 23F 32F 95 2% - - 97% 1 mhos 548 - Yes - - -
12/09/2016 06:09 Ice Warning 16.2F - 23F 32F 95 2% - - 97% 1 mhos 548 - Yes - - -
12/09/2016 06:03 Ice Warning 16.0F - 23F 32F 95 2% - - 97% 1 mhos 555 - Yes - - -
12/09/2016 05:54 Ice Warning 15.8F - 23F 32F 95 2% - - 97% 1 mhos 555 - Yes - - -
12/09/2016 05:53 Ice Warning 15.8F - 23F 31F 95 2% - - 97% 1 mhos 558 - Yes - - -
12/09/2016 05:43 Ice Warning 15.4F - 23F 31F 95 2% - - 97% 1 mhos 565 - Yes - - -
12/09/2016 05:39 Ice Warning 15.4F - 23F 31F 95 2% - - 97% 1 mhos 565 - Yes - - -
12/09/2016 05:33 Ice Warning 15.3F - 23F 31F 95 2% - - 97% 1 mhos 572 - Yes - - -
12/09/2016 05:24 Ice Warning 15.3F - 23F 31F 95 2% - - 97% 1 mhos 576 - Yes - - -
Date/Time
(MST)
Sf
Temp Chem Water Layer Surface Precipitation
Sfc Pvt Sub Frz Factor Pct Dpth DpthThk IcePct Cond Salin FI Type Intens Accum Rate
12/09/2016 05:23 Ice Warning 15.3F - 23F 31F 95 2% - - 97% 1 mhos 576 - Yes - - -
12/09/2016 05:13 Ice Warning 15.4F - 23F 31F 95 2% - - 97% 1 mhos 565 - Yes - - -
12/09/2016 05:09 Ice Warning 15.6F - 23F 31F 95 2% - - 97% 1 mhos 562 - Yes - - -
12/09/2016 05:03 Ice Warning 15.8F - 23F 32F 95 2% - - 97% 1 mhos 555 - Yes - - -
12/09/2016 04:54 Ice Warning 16.2F - 23F 32F 95 2% - - 97% 1 mhos 542 - None None - -
12/09/2016 04:53 Ice Warning 16.2F - 23F 32F 95 2% - - 97% 1 mhos 542 - None None - -
12/09/2016 04:43 Ice Warning 16.3F - 23F 32F 95 2% - - 97% 1 mhos 535 - Yes - - -
12/09/2016 04:39 Ice Warning 16.5F - 23F 32F 95 2% - - 97% 1 mhos 532 - None None - -
12/09/2016 04:33 Ice Warning 16.5F - 23F 32F 95 2% - - 97% 1 mhos 531 - Yes - - -
12/09/2016 04:24 Ice Warning 16.3F - 23F 32F 95 2% - - 97% 1 mhos 534 - Yes - - -
12/09/2016 04:23 Ice Warning 16.3F - 23F 32F 95 2% - - 97% 1 mhos 534 - Yes - - -
12/09/2016 04:13 Ice Warning 16.2F - 23F 32F 95 2% - - 97% 1 mhos 545 - Yes - - -
12/09/2016 04:09 Ice Warning 16.2F - 23F 32F 95 2% - - 97% 1 mhos 541 - Yes - - -
12/09/2016 04:03 Ice Warning 16.2F - 23F 32F 95 2% - - 97% 1 mhos 541 - Yes - - -
12/09/2016 03:54 Ice Warning 16.2F - 23F 32F 95 2% - - 97% 1 mhos 544 - Yes - - -
Date/Time
(MST)
Sf
Temp Chem Water Layer Surface Precipitation
Sfc Pvt Sub Frz Factor Pct Dpth DpthThk IcePct Cond Salin FI Type Intens Accum Rate
12/09/2016 03:53 Ice Warning 16.2F - 23F 32F 95 2% - - 97% 1 mhos 544 - Yes - - -
12/09/2016 03:42 Ice Warning 16.2F - 23F 32F 95 2% - - 97% 1 mhos 544 - Yes - - -
12/09/2016 03:39 Ice Warning 16.0F - 23F 32F 95 2% - - 97% 1 mhos 551 - Yes - - -
12/09/2016 03:32 Ice Warning 16.0F - 23F 32F 95 2% - - 97% 1 mhos 548 - Yes - - -
12/09/2016 03:24 Ice Warning 15.8F - 23F 32F 95 2% - - 97% 1 mhos 555 - Yes - - -
12/09/2016 03:22 Ice Warning 15.8F - 23F 32F 95 2% - - 97% 1 mhos 555 - Yes - - -
12/09/2016 03:12 Ice Warning 15.8F - 23F 32F 95 2% - - 97% 1 mhos 551 - Yes - - -
12/09/2016 03:09 Ice Warning 15.6F - 23F 31F 95 2% - - 97% 1 mhos 558 - Yes - - -
12/09/2016 03:02 Ice Warning 15.6F - 23F 31F 95 2% - - 97% 1 mhos 558 - Yes - - -
12/09/2016 02:54 Ice Warning 15.4F - 23F 31F 95 2% - - 97% 1 mhos 562 - Yes - - -
12/09/2016 02:52 Ice Warning 15.4F - 23F 31F 95 2% - - 97% 1 mhos 562 - Yes - - -
12/09/2016 02:42 Ice Warning 15.3F - 23F 31F 95 2% - - 97% 1 mhos 565 - Yes - - -
12/09/2016 02:39 Ice Warning 15.3F - 23F 31F 95 2% - - 97% 1 mhos 566 - Yes - - -
12/09/2016 02:32 Ice Warning 15.3F - 23F 31F 95 2% - - 97% 1 mhos 565 - Yes - - -
12/09/2016 02:24 Ice Warning 15.3F - 23F 31F 95 2% - - 97% 1 mhos 569 - Yes - - -
Date/Time
(MST)
Sf
Temp Chem Water Layer Surface Precipitation
Sfc Pvt Sub Frz Factor Pct Dpth DpthThk IcePct Cond Salin FI Type Intens Accum Rate
12/09/2016 02:22 Ice Warning 15.3F - 23F 31F 95 2% - - 97% 1 mhos 569 - Yes - - -
12/09/2016 02:12 Ice Warning 15.1F - 22F 31F 95 2% - - 97% 1 mhos 576 - Yes - - -
12/09/2016 02:09 Ice Warning 15.1F - 22F 31F 95 2% - - 97% 1 mhos 573 - Yes - - -
12/09/2016 02:02 Ice Warning 15.1F - 22F 31F 95 2% - - 97% 1 mhos 576 - Yes - - -
12/09/2016 01:54 Ice Warning 14.9F - 22F 31F 95 2% - - 97% 1 mhos 580 - Yes - - -
12/09/2016 01:52 Ice Warning 14.9F - 22F 31F 95 2% - - 97% 1 mhos 576 - Yes - - -
12/09/2016 01:42 Ice Warning 14.7F - 22F 31F 95 2% - - 97% 1 mhos 583 - Yes - - -
12/09/2016 01:39 Ice Warning 14.7F - 22F 31F 95 2% - - 97% 1 mhos 583 - Yes - - -
12/09/2016 01:32 Ice Warning 14.5F - 22F 31F 95 2% - - 97% 1 mhos 587 - Yes - - -
12/09/2016 01:24 Ice Warning 14.5F - 22F 31F 95 2% - - 97% 1 mhos 583 - Yes - - -
12/09/2016 01:22 Ice Warning 14.4F - 22F 31F 95 2% - - 97% 1 mhos 591 - Yes - - -
12/09/2016 01:12 Ice Warning 14.4F - 22F 31F 95 2% - - 97% 1 mhos 587 - Yes - - -
12/09/2016 01:09 Ice Warning 14.2F - 22F 31F 95 2% - - 97% 1 mhos 591 - Yes - - -
12/09/2016 01:02 Ice Warning 14.2F - 22F 31F 95 2% - - 97% 1 mhos 591 - Yes - - -
12/09/2016 00:54 Ice Warning 14.2F - 22F 31F 95 2% - - 97% 1 mhos 598 - Yes - - -
Date/Time
(MST)
Sf
Temp Chem Water Layer Surface Precipitation
Sfc Pvt Sub Frz Factor Pct Dpth DpthThk IcePct Cond Salin FI Type Intens Accum Rate
12/09/2016 00:52 Ice Warning 14.2F - 22F 31F 95 2% - - 97% 1 mhos 595 - Yes - - -
12/09/2016 00:42 Ice Warning 14.2F - 22F 31F 95 2% - - 97% 1 mhos 595 - Yes - - -
12/09/2016 00:32 Ice Warning 14.0F - 22F 31F 95 2% - - 97% 1 mhos 595 - Yes - - -
12/09/2016 00:24 Ice Warning 13.8F - 22F 31F 95 2% - - 97% 1 mhos 602 - Yes - - -
12/09/2016 00:22 Ice Warning 13.8F - 22F 31F 95 2% - - 97% 1 mhos 599 - Yes - - -
12/09/2016 00:12 Ice Warning 13.6F - 22F 31F 95 2% - - 97% 1 mhos 606 - Yes - - -
12/09/2016 00:09 Ice Warning 13.6F - 22F 31F 95 2% - - 97% 1 mhos 603 - Yes - - -
12/09/2016 00:02 Ice Warning 13.5F - 22F 31F 95 2% - - 97% 1 mhos 610 - Yes - - -
12/08/2016 23:54 Ice Warning 13.5F - 22F 31F 95 2% - - 97% 1 mhos 607 - Yes - - -
12/08/2016 23:52 Ice Warning 13.5F - 22F 31F 95 2% - - 97% 1 mhos 607 - Yes - - -
12/08/2016 23:42 Ice Warning 13.3F - 22F 31F 95 2% - - 97% 1 mhos 611 - Yes - - -
12/08/2016 23:39 Ice Warning 13.3F - 22F 31F 95 2% - - 97% 1 mhos 607 - Yes - - -
12/08/2016 23:32 Ice Warning 13.3F - 22F 31F 95 2% - - 97% 1 mhos 607 - Yes - - -
12/08/2016 23:24 Ice Warning 13.3F - 22F 31F 95 2% - - 97% 1 mhos 607 - Yes - - -
12/08/2016 23:22 Ice Warning 13.3F - 22F 31F 95 2% - - 97% 1 mhos 611 - Yes - - -
Date/Time
(MST)
Sf
Temp Chem Water Layer Surface Precipitation
Sfc Pvt Sub Frz Factor Pct Dpth DpthThk IcePct Cond Salin FI Type Intens Accum Rate
12/08/2016 23:11 Ice Warning 13.3F - 22F 31F 95 2% - - 97% 1 mhos 611 - Yes - - -
12/08/2016 23:09 Ice Warning 13.3F - 22F 31F 95 2% - - 97% 1 mhos 608 - Yes - - -
12/08/2016 23:01 Ice Warning 13.3F - 22F 31F 95 2% - - 97% 1 mhos 611 - None None - -
12/08/2016 22:54 Ice Warning 13.1F - 22F 31F 95 2% - - 97% 1 mhos 616 - None None - -
12/08/2016 22:51 Ice Warning 13.1F - 22F 31F 95 2% - - 97% 1 mhos 620 - Yes - - -
12/08/2016 22:41 Ice Warning 13.1F - 22F 31F 95 2% - - 97% 1 mhos 627 - Yes - - -
12/08/2016 22:39 Ice Warning 13.3F - 22F 31F 95 2% - - 97% 1 mhos 619 - None None - -
12/08/2016 22:31 Ice Warning 13.3F - 22F 31F 95 2% - - 97% 1 mhos 633 - Yes - - -
12/08/2016 22:24 Ice Warning 13.3F - 22F 31F 95 2% - - 97% 1 mhos 640 - Yes - - -
12/08/2016 22:21 Ice Warning 13.3F - 22F 31F 95 2% - - 97% 1 mhos 644 - Yes - - -
12/08/2016 22:11 Ice Warning 13.3F - 22F 31F 95 2% - - 97% 1 mhos 638 - Yes - - -
12/08/2016 22:09 Ice Warning 13.1F - 22F 31F 95 2% - - 97% 1 mhos 642 - Yes - - -
12/08/2016 22:01 Ice Warning 13.1F - 22F 31F 95 2% - - 97% 1 mhos 642 - Yes - - -
Change End Date:

Copyright © 1998-2015 Vaisala, Inc.
All Rights Reserved
Send comments about the data to:
SCAN Web ® is a registered trademark of Vaisala, Inc.
SCAN Web Version 6.0